SCOUT D-1 DEB, 12858

Orbit data source: Space-Track

SCOUT D-1 DEB, 12858 is space debris in LEO originally from a launch on Fri, 28 Oct 1977 UTC launched from the Air Force Western Test Range (AFWTR). Debris objects in space refer to the collection of defunct objects orbiting the Earth. Examples of debris include non-operational satellites, rocket bodies, and fragments generated from explosions, collisions, or faulty payload assembly.

Loading next visibility...
Identifier
12858, 1977-106C
Orbit
LEO
Country
Flag of USUS
Related business
Manufacturer
Unknown
Mission
Spacecraft
Bus & Motor
Unknown
Mass
Unknown
Launch date (UTC)
1977-10-28 (49 years ago)
Launch vehicle
Unknown
Launch site
Air Force Western Test Range (AFWTR)
Object type
Payload
Rocket body
Debris
Shape & HBR
Unknown shape, 0.1 m
Radar Cross Section
Medium (>0.1 m² and <1 m²)

Expand to show TLE details & history
Last TLE update: 2 days ago

TLE from 2 days ago
0 SCOUT D-1 DEB
1 12858U 77106C   26171.46470122  .00000098  00000-0  13780-3 0  9997
2 12858  89.5084 346.7051 0020218  91.8406 297.1862 13.49229541292083
Epoch: 2026-06-20T11:09Z
TLE epoch observation values (Epoch: 2026-06-20T11:09:10.185Z)
Latitude
28.86222°
Longitude
-88.99671°
Altitude
1,071.863 km
Speed
7.322 km/s
True Right ascension
23h 07m 53s
True Declination
28° 43' 24"
Sunlit
Object was in daylight at epoch
Visualization orbit readout
Latitude
Unknown
Longitude
Unknown
Altitude
Unknown
Speed
Unknown
Apparent Right ascension
Unknown
Apparent Declination
Unknown
Sunlit
N/A
Visualization observer readout
Local Sidereal Time
23:08:22
Azimuth
Unknown
Elevation
Unknown
Doppler factor
Unknown
Orbital elements
Apogee altitude
1,087.209 km
Perigee altitude
1,057.083 km
Semi-major axis
7,450.283 km
Eccentricity
0.00202
Inclination
89.5084°
RAAN
346.7051°
Arg. of periapsis
91.8406°
True anomaly
296.97988°
Mean anomaly
297.1862°
Eccentric anomaly
297.08306°
Mean motion
3.37508 °/min
Orbital period
106.66 mins
BSTAR
0.0001378
Loading maneuver chart data...
Computing Atmospheric mass density...
Loading historical data...
Loading historical data...
Loading historical data...
Loading historical data...
Loading historical data...
Loading historical data...
Loading historical data...
Other satellites on launch #106 in the year 1977 (1977-10-28 UTC)

Documentation

Showing up to 5 results
|